Skip Page Navigation
NASA JPL Caltech
NASA Logo - Jet Propulsion Laboratory + View the NASA Portal
+ Near-Earth Object (NEO) Program
Search JPL
JPL Home Earth Solar System Stars & Galaxies Technology
JPL Solar System Dynamics
BODIES ORBITS EPHEMERIDES TOOLS PHYSICAL DATA DISCOVERY FAQ SITE MAP
JPL Small-Body Database Browser
Search: [ help ]  
11681 Ortner (1998 EP6)
Classification: Main-belt Asteroid          SPK-ID: 2011681
Ephemeris | Orbit Diagram | Orbital Elements | Physical Parameters | Discovery Circumstances ]

[ show orbit diagram ]
Orbital Elements at Epoch 2456800.5 (2014-May-23.0) TDB
Reference: JPL 11 (heliocentric ecliptic J2000)
 Element Value Uncertainty (1-sigma)   Units 
e .1026752663414756 6.6795e-08  
a 2.188688987440012 1.0469e-08 AU
q 1.963964762715954 1.4798e-07 AU
i 2.017731906749597 5.9095e-06 deg
node 324.7861118803446 0.00014278 deg
peri 215.5729159939969 0.00014511 deg
M 352.0367030644412 2.5171e-05 deg
tp 2456826.661636988189
(2014-Jun-18.16163699)
8.2701e-05 JED
period 1182.699752622905
3.24
8.4856e-06
2.323e-08
d
yr
n .3043883278081512 2.1839e-09 deg/d
Q 2.41341321216407 1.1544e-08 AU
  Orbit Determination Parameters
   # obs. used (total)      1217  
   data-arc span      25999 days (71.18 yr)  
   first obs. used      1943-04-03  
   last obs. used      2014-06-08  
   planetary ephem.      DE431  
   SB-pert. ephem.      SB431-BIG16  
   condition code      0  
   fit RMS      .51494  
   data source      ORB  
   producer      Otto Matic  
   solution date      2014-Jun-16 13:47:56  

Additional Information
 Earth MOID = .967793 AU 
 T_jup = 3.667 
[ show covariance matrix ]

Ephemeris | Orbit Diagram | Orbital Elements | Physical Parameters | Discovery Circumstances ]

Physical Parameter Table
Parameter Symbol Value Units Sigma Reference Notes
absolute magnitude H 13.8 mag n/a MPO250328  

11681 Ortner           Discovered 1998 Mar. 1 by the OCA-DLR Asteroid Survey at Caussols.
Johannes Ortner (b. 1933) is founder and unique director of the Summer School Alpbach. Held annually since 1975, Alpbach provides in-depth teaching on all aspects of space science and technology for European students, culminating in the design of innovative space-mission proposals.
NOTE: some special characters may not display properly (any characters within {} are an attempt to place the proper accent above a character)
Reference: 20081113/MPCPages.arcLast Updated: 2008-11-17

Alternate Designations
 1998 EP6 = 1943 GD = 1980 UP1 = 1985 DW3 = 1986 RY8 
Ephemeris | Orbit Diagram | Orbital Elements | Physical Parameters | Discovery Circumstances ]
ABOUT SSD CREDITS/AWARDS PRIVACY/COPYRIGHT GLOSSARY LINKS
FirstGov 2014-Jul-23 11:54 UT
(server date/time)  
NASA Home Page
Site Manager:   Donald K. Yeomans
Webmaster  Alan B. Chamberlin